Simultaneous Nadir Overpasses (SNOs) Predictions

Prediction of SNOs between METOP-B and TERRA Satellite Orbit:

Table of predicted SNOs for the next 14.0 days since TLE Epoch: 6/6/2020
Index Date (METOP-B) Time (METOP-B) Lat,Lon (METOP-B) SZA (METOP-B ) Date (TERRA) Time (TERRA) Lat,Lon (TERRA) SZA (TERRA ) Distance(km) Time Diff (sec)
1 06/07/2020 17:53:40 -81.32, 139.09 118.54 06/07/2020 17:54:21 -81.31, 138.98 118.54 2.01 41
2 06/07/2020 18:44:20 81.32, -53.42 61.48 06/07/2020 18:43:47 81.32, -53.24 61.48 3.15 33
3 06/10/2020 13:28:00 -81.32,-154.29 118.76 06/10/2020 13:28:36 -81.33,-154.33 118.74 0.91 36
4 06/10/2020 14:18:39 81.33, 13.56 61.31 06/10/2020 14:18:02 81.33, 13.43 61.28 2.17 37
5 06/13/2020 09:02:22 -81.32, -88.07 118.97 06/13/2020 09:02:54 -81.32, -88.03 118.95 0.63 32
6 06/13/2020 09:53:01 81.33, 79.74 61.09 06/13/2020 09:52:20 81.32, 79.70 61.07 0.62 41
7 06/16/2020 04:36:44 -81.32, -21.87 119.13 06/16/2020 04:37:13 -81.31, -21.76 119.11 1.98 29
8 06/16/2020 05:27:22 81.33, 146.30 60.98 06/16/2020 05:26:38 81.34, 146.33 60.96 1.08 44
9 06/19/2020 00:11:04 -81.32, 44.69 119.19 06/19/2020 00:11:31 -81.32, 44.87 119.16 2.94 27




NCC Satellite Simultaneous Nadir Overpasses (SNOs) Prediction Service
